IZ1GCT Weather Reports


Display with metric or nautical units.
time (UTC)temp
F
wind
direction
speed
MPH
gust
MPH
rain 1hr
in
rain 24hr
in
rain mn
in
humidity
%
barometer
mb
20260509080536 68 146 2.0 5.0 0.00 0.02 0.00 44 1020.3
20260509080035 71 135 2.0 3.0 0.00 0.02 0.00 42 1020.4
20260509075536 71 140 1.0 2.0 0.00 0.02 0.00 44 1020.5
20260509075036 69 146 1.0 2.0 0.00 0.02 0.00 45 1020.4
20260509074535 69 140 1.0 3.0 0.00 0.02 0.00 46 1020.5
20260509074037 68 138 1.0 3.0 0.00 0.02 0.00 45 1020.5
20260509073535 68 158 0.0 1.0 0.00 0.02 0.00 50 1020.5
20260509073037 67 131 2.0 3.0 0.00 0.02 0.00 51 1020.5
20260509072535 65 149 1.0 2.0 0.00 0.02 0.00 51 1020.6
20260509072037 66 144 2.0 3.0 0.00 0.02 0.00 50 1020.4
20260509071537 67 158 2.0 3.0 0.00 0.02 0.00 50 1020.4
20260509071036 68 135 1.0 2.0 0.00 0.02 0.00 51 1020.3
20260509070536 67 136 1.0 2.0 0.00 0.02 0.00 51 1020.3
20260509070035 66 158 0.0 1.0 0.00 0.02 0.00 52 1020.3
20260509065536 65 135 1.0 2.0 0.00 0.02 0.00 53 1020.3
20260509065036 64 115 2.0 3.0 0.00 0.02 0.00 53 1020.5
20260509064535 65 126 2.0 3.0 0.00 0.02 0.00 53 1020.5
20260509064037 66 158 1.0 3.0 0.00 0.02 0.00 50 1020.6
20260509063536 68 118 0.0 3.0 0.00 0.02 0.00 51 1020.6
20260509063036 68 147 1.0 1.0 0.00 0.02 0.00 51 1020.7
20260509062536 68 135 1.0 2.0 0.00 0.02 0.00 50 1020.6
20260509062035 67 135 0.0 1.0 0.00 0.04 0.00 51 1020.6
20260509061537 65 135 0.0 1.0 0.00 0.04 0.00 57 1020.7
20260509060808 63 135 1.0 2.0 0.00 0.05 0.00 58 1020.7
20260509060309 58 135 1.0 2.0 0.00 0.05 0.00 65 1020.7
20260509055809 58 135 1.0 1.0 0.00 0.05 0.00 67 1020.7
20260509055308 56 135 3.0 5.0 0.00 0.05 0.00 78 1020.7
20260509054810 53 146 1.0 2.0 0.00 0.05 0.00 82 1020.7
20260509054309 52 135 0.0 0.0 0.00 0.05 0.00 82 1020.7
20260509053809 51 158 2.0 3.0 0.00 0.05 0.00 82 1020.7
20260509053308 51 135 2.0 3.0 0.00 0.05 0.00 81 1020.6
20260509052809 51 147 3.0 3.0 0.00 0.05 0.00 80 1020.6
20260509052309 51 135 3.0 5.0 0.00 0.05 0.00 80 1020.6
20260509051809 51 135 3.0 3.0 0.00 0.05 0.00 80 1020.6
20260509051310 51 149 1.0 2.0 0.00 0.05 0.00 80 1020.5
20260509050809 50 158 0.0 3.0 0.00 0.05 0.00 81 1020.5
20260509050308 50 135 0.0 1.0 0.00 0.05 0.00 80 1020.6
20260509045808 50 135 1.0 1.0 0.00 0.05 0.00 80 1020.5
20260509045042 50 155 1.0 2.0 0.00 0.05 0.00 80 1020.4
20260509044542 50 148 2.0 3.0 0.00 0.05 0.00 79 1020.4
20260509044041 50 145 3.0 5.0 0.00 0.05 0.00 79 1020.4
20260509043543 50 155 0.0 3.0 0.00 0.05 0.00 79 1020.3
20260509043042 50 135 1.0 3.0 0.00 0.05 0.00 79 1020.4
20260509042541 50 135 2.0 3.0 0.00 0.05 0.00 79 1020.4
20260509042041 50 158 0.0 0.0 0.00 0.05 0.00 78 1020.4
20260509041542 50 158 3.0 5.0 0.00 0.05 0.00 77 1020.4
20260509041042 50 140 1.0 2.0 0.00 0.05 0.00 77 1020.3
20260509040542 50 135 1.0 3.0 0.00 0.05 0.00 76 1020.3
20260509035536 51 136 1.0 2.0 0.00 0.05 0.00 74 1020.3
20260509035037 52 135 0.0 1.0 0.00 0.05 0.00 73 1020.4
20260509034536 53 135 1.0 6.0 0.00 0.05 0.00 72 1020.4
20260509034036 52 135 3.0 6.0 0.00 0.06 0.00 73 1020.5
20260509033537 52 135 3.0 6.0 0.00 0.06 0.00 75 1020.5
20260509033037 52 135 2.0 3.0 0.00 0.06 0.00 76 1020.5
20260509032537 51 135 3.0 6.0 0.00 0.06 0.00 78 1020.5
20260509032036 51 135 3.0 6.0 0.00 0.06 0.00 80 1020.4
20260509031538 51 135 3.0 6.0 0.00 0.06 0.00 83 1020.5
20260509031037 50 135 5.0 8.0 0.00 0.06 0.00 87 1020.5
20260509030536 49 135 2.0 3.0 0.00 0.06 0.00 89 1020.4
20260509030036 48 135 2.0 3.0 0.00 0.06 0.00 89 1020.4
20260509025537 48 135 1.0 2.0 0.00 0.06 0.00 89 1020.3
20260509025037 48 158 2.0 3.0 0.00 0.06 0.00 88 1020.3
20260509024536 48 158 1.0 3.0 0.00 0.06 0.00 89 1020.4
20260509024037 48 135 0.0 0.0 0.00 0.06 0.00 89 1020.4
20260509023537 49 158 2.0 3.0 0.00 0.06 0.00 90 1020.3
20260509023036 48 135 0.0 1.0 0.00 0.06 0.00 90 1020.3
20260509022538 48 141 1.0 1.0 0.00 0.06 0.00 90 1020.4
20260509022037 48 158 2.0 3.0 0.00 0.06 0.00 89 1020.4
20260509021536 49 158 3.0 3.0 0.00 0.06 0.00 89 1020.4
20260509021036 48 158 0.0 3.0 0.00 0.06 0.00 89 1020.4
20260509020537 49 158 3.0 6.0 0.00 0.06 0.00 89 1020.4
20260509020037 49 158 3.0 3.0 0.00 0.06 0.00 89 1020.4
20260509015536 49 158 0.0 1.0 0.00 0.06 0.00 89 1020.4
20260509015037 49 158 1.0 2.0 0.00 0.06 0.00 89 1020.3
20260509014536 49 135 0.0 1.0 0.00 0.06 0.00 90 1020.2
20260509014038 49 158 5.0 6.0 0.00 0.06 0.00 90 1020.3
20260509013539 49 158 3.0 6.0 0.00 0.06 0.00 88 1020.2
20260509013038 49 158 3.0 5.0 0.00 0.06 0.00 88 1020.1
20260509012538 50 145 1.0 2.0 0.00 0.06 0.00 88 1020.3
20260509012039 50 135 0.0 1.0 0.00 0.06 0.00 87 1020.1
20260509011539 50 135 1.0 1.0 0.00 0.06 0.00 87 1020.1
20260509011038 51 158 1.0 3.0 0.00 0.06 0.00 87 1020.0
20260509010538 50 158 3.0 3.0 0.00 0.06 0.00 86 1020.1
20260509010040 50 158 1.0 2.0 0.00 0.06 0.00 85 1020.1
20260509005539 50 135 1.0 2.0 0.00 0.06 0.00 85 1020.3
20260509005038 51 135 0.0 1.0 0.00 0.06 0.00 85 1020.2
20260509004538 51 135 2.0 3.0 0.00 0.06 0.00 85 1020.2
20260509004039 51 158 2.0 3.0 0.00 0.06 0.00 86 1020.1
20260509003540 51 120 1.0 1.0 0.00 0.06 0.00 85 1020.1
20260509003039 51 158 1.0 3.0 0.00 0.06 0.00 85 1020.2
20260509002539 51 158 2.0 3.0 0.00 0.06 0.00 84 1020.2
20260509002038 51 158 1.0 3.0 0.00 0.06 0.00 84 1020.2
20260509001538 52 158 3.0 5.0 0.00 0.06 0.00 82 1020.1
20260509001038 52 139 0.0 1.0 0.00 0.06 0.00 81 1020.0
20260509000539 53 158 2.0 3.0 0.00 0.06 0.00 81 1020.0
20260509000039 53 158 2.0 3.0 0.00 0.06 0.00 80 1020.1
20260508235538 53 135 3.0 6.0 0.00 0.06 0.00 80 1020.2
20260508235039 53 145 1.0 2.0 0.00 0.06 0.00 80 1020.1
20260508234538 54 135 2.0 3.0 0.00 0.06 0.00 78 1020.3
20260508234039 54 135 0.0 1.0 0.00 0.06 0.00 74 1020.3
20260508233539 55 135 1.0 3.0 0.00 0.06 0.00 75 1020.3
20260508233038 54 137 2.0 6.0 0.00 0.06 0.00 80 1020.3
20260508232538 53 158 3.0 6.0 0.00 0.06 0.00 83 1020.4
20260508232039 53 150 3.0 5.0 0.00 0.06 0.00 85 1020.3
20260508231538 53 154 3.0 6.0 0.00 0.06 0.00 85 1020.4
20260508231038 53 135 1.0 3.0 0.00 0.06 0.00 84 1020.4
20260508230539 53 151 2.0 5.0 0.00 0.06 0.00 83 1020.3
20260508230038 54 135 0.0 0.0 0.00 0.06 0.00 82 1020.3
20260508225539 54 135 0.0 1.0 0.00 0.06 0.00 82 1020.3
20260508225039 54 135 0.0 1.0 0.00 0.06 0.00 81 1020.3
20260508224538 55 135 1.0 2.0 0.00 0.06 0.00 77 1020.2
20260508224038 55 135 2.0 3.0 0.00 0.06 0.00 75 1020.2
20260508223539 56 135 0.0 1.0 0.00 0.06 0.00 74 1020.4
20260508223039 56 135 1.0 1.0 0.00 0.06 0.00 73 1020.4
20260508222538 56 150 0.0 1.0 0.00 0.06 0.00 74 1020.5
20260508222039 56 135 2.0 5.0 0.00 0.06 0.00 76 1020.4
20260508221539 55 147 2.0 5.0 0.00 0.06 0.00 80 1020.5
20260508221038 54 135 3.0 6.0 0.00 0.06 0.00 85 1020.4
20260508220538 53 137 1.0 3.0 0.00 0.06 0.00 87 1020.5
20260508220039 53 135 2.0 3.0 0.00 0.06 0.00 88 1020.5
20260508215539 53 158 0.0 1.0 0.00 0.06 0.06 88 1020.5
20260508215038 53 158 0.0 0.0 0.00 0.06 0.06 87 1020.4
20260508214538 53 135 0.0 1.0 0.00 0.06 0.06 88 1020.3
20260508214039 53 158 3.0 5.0 0.00 0.06 0.06 88 1020.3
20260508213539 53 158 1.0 2.0 0.00 0.06 0.06 88 1020.2
20260508213039 53 135 0.0 0.0 0.00 0.06 0.06 88 1020.3
20260508212538 53 135 0.0 0.0 0.00 0.06 0.06 88 1020.2
20260508212038 53 158 0.0 0.0 0.00 0.06 0.06 88 1020.2
20260508211539 53 153 3.0 5.0 0.00 0.06 0.06 88 1020.2
20260508211039 53 157 1.0 3.0 0.00 0.06 0.06 87 1020.3
20260508210538 54 158 2.0 3.0 0.00 0.06 0.06 86 1020.3
20260508210038 54 135 1.0 2.0 0.00 0.06 0.06 84 1020.2
20260508205539 54 135 0.0 1.0 0.00 0.06 0.06 84 1020.2
20260508205039 55 135 0.0 0.0 0.00 0.06 0.06 81 1020.1
20260508204538 55 135 0.0 1.0 0.00 0.06 0.06 81 1020.1
20260508204039 55 135 2.0 3.0 0.00 0.06 0.06 81 1020.1
20260508203539 55 158 1.0 2.0 0.00 0.06 0.06 81 1020.1
20260508203038 56 135 0.0 0.0 0.00 0.06 0.06 81 1020.0
20260508202538 55 135 0.0 1.0 0.00 0.06 0.06 81 1020.0
20260508202039 55 135 1.0 1.0 0.00 0.06 0.06 81 1020.0
20260508201539 56 158 2.0 3.0 0.00 0.06 0.06 81 1020.1
20260508201038 56 158 0.0 0.0 0.00 0.06 0.06 81 1020.0
20260508200539 56 158 2.0 3.0 0.00 0.06 0.06 80 1019.9
20260508200038 56 158 1.0 2.0 0.00 0.06 0.06 80 1020.0
20260508195537 56 135 0.0 0.0 0.00 0.06 0.06 80 1020.0
20260508195039 56 135 0.0 1.0 0.00 0.06 0.06 80 1019.8
20260508194539 56 135 0.0 0.0 0.00 0.06 0.06 79 1019.9
20260508194039 56 158 0.0 0.0 0.00 0.06 0.06 79 1019.8
20260508193538 57 158 1.0 3.0 0.00 0.06 0.06 80 1019.6
20260508193038 56 158 3.0 3.0 0.00 0.06 0.06 81 1019.6
20260508192539 56 135 1.0 3.0 0.00 0.06 0.06 81 1019.5
20260508192038 56 135 1.0 1.0 0.00 0.06 0.06 80 1019.5
20260508191538 57 158 1.0 3.0 0.00 0.06 0.06 80 1019.4
20260508191039 57 137 0.0 0.0 0.00 0.06 0.06 80 1019.3
20260508190539 57 135 0.0 0.0 0.00 0.06 0.06 80 1019.4
20260508190038 57 135 0.0 0.0 0.00 0.06 0.06 79 1019.2
20260508185538 57 135 0.0 1.0 0.00 0.06 0.06 80 1019.1
20260508185039 58 135 1.0 2.0 0.00 0.06 0.06 79 1019.1
20260508184538 58 155 2.0 3.0 0.00 0.06 0.06 77 1019.1
20260508184038 59 158 0.0 1.0 0.00 0.06 0.06 74 1019.0
20260508183539 59 158 0.0 0.0 0.00 0.06 0.06 74 1018.9
20260508183039 59 158 0.0 0.0 0.00 0.06 0.06 73 1019.0
20260508182538 60 158 1.0 1.0 0.00 0.06 0.06 73 1018.9
20260508182037 60 158 0.0 1.0 0.00 0.06 0.06 73 1018.9
20260508181539 60 158 1.0 1.0 0.00 0.06 0.06 72 1018.8
20260508181038 60 158 1.0 1.0 0.00 0.06 0.06 72 1018.8
20260508180539 61 158 2.0 3.0 0.00 0.06 0.06 71 1018.9
20260508180038 62 158 1.0 3.0 0.00 0.06 0.06 70 1018.8
20260508175538 62 158 1.0 3.0 0.00 0.06 0.06 69 1018.8
20260508175039 63 158 0.0 0.0 0.00 0.06 0.06 67 1018.8
20260508174538 63 158 0.0 0.0 0.00 0.06 0.06 66 1018.7
20260508174039 64 158 0.0 0.0 0.00 0.06 0.06 61 1018.7
20260508173538 65 158 0.0 0.0 0.00 0.06 0.06 58 1018.6
20260508173037 65 158 0.0 0.0 0.00 0.06 0.06 53 1018.4
20260508172539 65 140 0.0 1.0 0.00 0.06 0.06 51 1018.5
20260508172038 66 135 2.0 3.0 0.00 0.06 0.06 50 1018.4
20260508171537 67 128 2.0 3.0 0.00 0.06 0.06 50 1018.4
20260508171039 67 135 2.0 3.0 0.00 0.06 0.06 50 1018.3
20260508170539 67 158 2.0 3.0 0.00 0.06 0.06 51 1018.3
20260508170038 67 135 1.0 3.0 0.00 0.06 0.06 50 1018.3
20260508165539 67 112 3.0 5.0 0.00 0.06 0.06 49 1018.3
20260508165038 68 135 2.0 3.0 0.00 0.06 0.06 48 1018.3
20260508164538 68 141 1.0 3.0 0.00 0.06 0.06 46 1018.2
20260508164037 69 116 2.0 3.0 0.00 0.06 0.06 45 1018.3
20260508163539 69 126 2.0 3.0 0.00 0.06 0.06 45 1018.2
20260508163038 69 143 1.0 3.0 0.00 0.06 0.06 44 1018.1
20260508162538 70 135 2.0 3.0 0.00 0.06 0.06 45 1018.1
20260508162039 71 144 2.0 3.0 0.00 0.06 0.06 43 1018.2
20260508161538 71 135 1.0 3.0 0.00 0.06 0.06 43 1018.1
20260508161038 70 135 1.0 2.0 0.00 0.06 0.06 44 1018.2
20260508160539 70 157 3.0 3.0 0.00 0.06 0.06 43 1018.2
20260508155535 70 135 1.0 2.0 0.00 0.06 0.06 45 1018.4
20260508155035 68 152 1.0 3.0 0.00 0.06 0.06 48 1018.4
20260508154536 68 158 2.0 3.0 0.00 0.06 0.06 48 1018.4
20260508154035 68 147 2.0 3.0 0.00 0.06 0.06 49 1018.5
20260508153535 67 135 1.0 2.0 0.00 0.06 0.06 48 1018.5
20260508153034 66 158 2.0 3.0 0.00 0.06 0.06 51 1018.5
20260508152536 65 153 2.0 3.0 0.00 0.06 0.06 50 1018.6
20260508152035 66 158 2.0 3.0 0.00 0.06 0.06 50 1018.6
20260508151534 67 158 2.0 3.0 0.00 0.06 0.06 48 1018.6
20260508151036 67 135 0.0 1.0 0.00 0.06 0.06 50 1018.7
20260508150535 66 135 1.0 2.0 0.00 0.06 0.06 50 1018.6
20260508150035 66 158 0.0 0.0 0.00 0.06 0.06 51 1018.8
20260508145536 66 135 1.0 1.0 0.00 0.06 0.06 50 1018.8
20260508145034 66 135 1.0 1.0 0.00 0.06 0.06 50 1018.8
20260508144536 66 140 0.0 1.0 0.00 0.06 0.06 51 1018.8
20260508144035 66 135 1.0 2.0 0.00 0.06 0.06 50 1018.9
20260508143535 66 135 1.0 2.0 0.00 0.06 0.06 51 1018.9
20260508143036 65 152 0.0 0.0 0.00 0.06 0.06 51 1019.0
20260508142536 65 144 0.0 1.0 0.00 0.06 0.06 50 1019.1
20260508142035 65 135 0.0 1.0 0.00 0.06 0.06 52 1019.0
20260508141536 65 140 0.0 3.0 0.00 0.06 0.06 53 1019.0
20260508141035 65 142 1.0 2.0 0.00 0.06 0.06 53 1019.2
20260508140534 64 158 5.0 7.0 0.00 0.06 0.06 52 1019.2
20260508140036 64 158 3.0 7.0 0.00 0.06 0.06 50 1019.2
20260508135535 65 148 3.0 5.0 0.00 0.06 0.06 50 1019.2
20260508135035 64 158 3.0 5.0 0.00 0.06 0.06 52 1019.2
20260508134534 64 135 2.0 3.0 0.00 0.06 0.06 52 1019.3
20260508134035 64 127 2.0 3.0 0.00 0.06 0.06 53 1019.3
20260508133534 64 136 3.0 3.0 0.00 0.06 0.06 51 1019.3
20260508133035 65 158 3.0 5.0 0.00 0.06 0.06 52 1019.4
20260508132534 64 158 0.0 2.0 0.00 0.06 0.06 54 1019.5
20260508132034 64 135 2.0 3.0 0.00 0.06 0.06 55 1019.5
20260508131536 64 126 2.0 3.0 0.00 0.06 0.06 57 1019.6
20260508131035 64 158 2.0 3.0 0.00 0.06 0.06 57 1019.6
20260508130535 63 152 3.0 5.0 0.00 0.06 0.06 61 1019.6
20260508130036 64 135 1.0 1.0 0.00 0.06 0.06 60 1019.6
20260508125536 63 151 2.0 5.0 0.00 0.06 0.06 63 1019.7
20260508125035 63 133 2.0 3.0 0.00 0.06 0.06 63 1019.8
20260508124534 63 123 2.0 3.0 0.00 0.06 0.06 64 1019.8
20260508124036 63 135 2.0 3.0 0.00 0.06 0.06 65 1019.8
20260508123536 62 143 2.0 3.0 0.00 0.06 0.06 63 1019.8
20260508123035 62 112 1.0 3.0 0.00 0.06 0.06 64 1019.8
20260508122535 62 141 1.0 2.0 0.00 0.06 0.06 63 1019.8
20260508122034 63 158 0.0 1.0 0.00 0.06 0.06 67 1019.8
20260508121536 62 158 1.0 1.0 0.00 0.06 0.06 66 1019.9
20260508121035 62 158 1.0 2.0 0.00 0.06 0.06 66 1019.9
20260508120535 62 157 0.0 1.0 0.00 0.06 0.06 66 1019.9
20260508120035 62 135 0.0 1.0 0.00 0.06 0.06 63 1019.9
20260508115535 62 135 0.0 0.0 0.00 0.06 0.06 68 1019.9
20260508115036 61 135 0.0 1.0 0.00 0.06 0.06 65 1020.0
20260508114535 61 135 0.0 1.0 0.00 0.06 0.06 66 1020.0
20260508114036 61 135 1.0 2.0 0.00 0.06 0.06 66 1020.0
20260508113535 61 135 1.0 2.0 0.00 0.06 0.06 65 1019.9
20260508113035 61 135 0.0 1.0 0.00 0.06 0.06 70 1020.0
20260508112536 61 135 0.0 0.0 0.00 0.06 0.06 69 1020.0
20260508112036 60 135 0.0 0.0 0.00 0.06 0.06 70 1020.0
20260508111535 60 135 0.0 0.0 0.00 0.06 0.06 70 1020.0
20260508111034 60 158 2.0 3.0 0.00 0.06 0.06 72 1020.1
20260508110536 60 135 0.0 1.0 0.00 0.06 0.06 72 1020.1
20260508110035 59 135 1.0 1.0 0.00 0.06 0.06 73 1020.0
20260508105535 59 135 1.0 2.0 0.00 0.06 0.06 73 1020.2
20260508105034 59 135 1.0 1.0 0.00 0.06 0.06 72 1020.2
20260508104536 59 135 0.0 1.0 0.00 0.06 0.06 73 1020.2
20260508104036 59 135 0.0 1.0 0.00 0.06 0.06 75 1020.1
20260508103535 58 135 0.0 0.0 0.00 0.06 0.06 75 1020.2
20260508103035 58 135 0.0 0.0 0.00 0.06 0.06 75 1020.2
20260508102534 58 135 0.0 0.0 0.00 0.06 0.06 75 1020.2
20260508102034 58 135 0.0 1.0 0.00 0.06 0.06 76 1020.1
20260508101536 57 135 0.0 1.0 0.00 0.06 0.06 77 1020.1
20260508101035 57 135 0.0 1.0 0.00 0.06 0.06 76 1020.1
20260508100535 57 135 2.0 3.0 0.00 0.06 0.06 77 1020.1
20260508100034 57 135 1.0 1.0 0.00 0.06 0.06 77 1020.1
20260508095536 57 135 2.0 3.0 0.00 0.06 0.06 78 1020.2
20260508095035 57 135 2.0 3.0 0.00 0.06 0.06 79 1020.1
20260508094534 56 135 1.0 2.0 0.00 0.06 0.06 78 1020.1
20260508094036 56 135 3.0 5.0 0.00 0.06 0.06 77 1020.1
20260508093535 57 135 1.0 3.0 0.00 0.06 0.06 80 1020.0
20260508093035 56 135 1.0 2.0 0.01 0.06 0.06 80 1020.0
20260508092534 56 135 2.0 3.0 0.01 0.06 0.06 81 1020.1
20260508092036 56 135 1.0 2.0 0.01 0.06 0.06 83 1020.1
20260508091534 56 135 0.0 0.0 0.01 0.06 0.06 84 1020.1
20260508091035 56 135 0.0 2.0 0.01 0.06 0.06 86 1020.0
20260508090534 56 135 0.0 1.0 0.02 0.06 0.06 87 1020.0
20260508090035 56 135 0.0 1.0 0.02 0.06 0.06 90 1019.9
20260508085535 56 158 0.0 1.0 0.02 0.06 0.06 90 1019.8
20260508085036 56 158 0.0 0.0 0.02 0.06 0.06 91 1019.9
20260508084535 55 158 0.0 0.0 0.02 0.06 0.06 91 1019.8
20260508084035 55 158 1.0 1.0 0.02 0.06 0.06 91 1019.8
20260508083534 55 135 1.0 1.0 0.02 0.06 0.06 90 1019.8
20260508083035 55 135 1.0 2.0 0.01 0.05 0.05 90 1019.8
20260508082535 55 135 2.0 3.0 0.01 0.05 0.05 90 1019.8
20260508082034 55 118 0.0 2.0 0.01 0.05 0.05 90 1019.7
20260508081535 55 132 3.0 5.0 0.01 0.05 0.05 89 1019.7
20260508081036 55 135 3.0 6.0 0.01 0.05 0.05 88 1019.7